Location: Knowlton
(51.2333°N, 1.2667°E)
Time: 09:56:02
(UTC+00:00)

Cosmos 1606 - Pass Details

Date: 18 April 2021
Orbit: 502 x 527 km, 82.5° (Epoch: 05 May)

Event Time Altitude Azimuth Distance (km) Brightness Sun altitude
Exits shadow 23:09:02 39° 343° (NNW) 779 4.0 -26.8°
Drops below altitude 10° 23:11:36 10° 4° (N) 1,726 6.3 -26.9°
Sets 23:13:46 0° 8° (N) 2,615 7.4 -27.0°
